Time,TemperatureF,DewpointF,PressureIn,WindDirection,WindDirectionDegrees,WindSpeedMPH,WindSpeedGustMPH,Humidity,HourlyPrecipIn,Conditions,Clouds,dailyrainin,SoftwareType,DateUTC
2013-05-14 00:00:00,64.6,54.1,30.25,NE,45,1.0,2.0,69,0.00,,,0.00,meteohub,2013-05-14 05:00:00,
2013-05-14 00:05:00,64.8,54.0,30.24,East,90,1.0,2.0,68,0.00,,,0.00,meteohub,2013-05-14 05:05:00,
2013-05-14 00:11:00,64.9,54.1,30.24,NE,45,2.0,2.0,68,0.00,,,0.00,meteohub,2013-05-14 05:11:00,
2013-05-14 00:16:00,64.8,54.0,30.24,NE,45,2.0,2.0,68,0.00,,,0.00,meteohub,2013-05-14 05:16:00,
2013-05-14 00:21:00,64.6,54.1,30.24,NE,45,2.0,2.0,69,0.00,,,0.00,meteohub,2013-05-14 05:21:00,
2013-05-14 00:26:00,64.6,54.5,30.24,NE,45,2.0,2.0,70,0.00,,,0.00,meteohub,2013-05-14 05:26:00,
2013-05-14 00:31:00,64.8,54.7,30.24,ENE,68,2.0,2.0,70,0.00,,,0.00,meteohub,2013-05-14 05:31:00,
2013-05-14 00:36:00,65.1,55.0,30.24,NE,45,2.0,2.0,70,0.00,,,0.00,meteohub,2013-05-14 05:36:00,
2013-05-14 00:41:00,65.3,55.6,30.24,NE,45,2.0,2.0,71,0.00,,,0.00,meteohub,2013-05-14 05:41:00,
2013-05-14 00:46:00,65.3,55.6,30.25,NE,45,2.0,2.0,71,0.00,,,0.00,meteohub,2013-05-14 05:46:00,
2013-05-14 00:51:00,65.5,55.8,30.24,NE,45,2.0,3.0,71,0.00,,,0.00,meteohub,2013-05-14 05:51:00,
2013-05-14 00:56:00,65.8,56.1,30.24,NE,45,3.0,4.0,71,0.00,,,0.00,meteohub,2013-05-14 05:56:00,
2013-05-14 01:01:00,66.2,56.1,30.24,NE,45,2.0,4.0,70,0.00,,,0.00,meteohub,2013-05-14 06:01:00,
2013-05-14 01:06:00,66.2,56.1,30.24,NE,45,2.0,4.0,70,0.00,,,0.00,meteohub,2013-05-14 06:06:00,
2013-05-14 01:12:00,67.3,56.3,30.24,NE,45,4.0,4.0,68,0.00,,,0.00,meteohub,2013-05-14 06:12:00,
2013-05-14 01:17:00,67.6,56.3,30.24,NE,45,4.0,7.0,67,0.00,,,0.00,meteohub,2013-05-14 06:17:00,
2013-05-14 01:22:00,67.6,56.3,30.23,NE,45,4.0,7.0,67,0.00,,,0.00,meteohub,2013-05-14 06:22:00,
2013-05-14 01:27:00,67.8,56.5,30.23,East,90,4.0,5.0,67,0.00,,,0.00,meteohub,2013-05-14 06:27:00,
2013-05-14 01:32:00,67.8,56.8,30.23,East,90,7.0,7.0,68,0.00,,,0.00,meteohub,2013-05-14 06:32:00,
2013-05-14 01:37:00,67.8,56.8,30.23,East,90,5.0,7.0,68,0.00,,,0.00,meteohub,2013-05-14 06:37:00,
2013-05-14 01:42:00,67.6,56.7,30.23,NE,45,4.0,7.0,68,0.00,,,0.00,meteohub,2013-05-14 06:42:00,
2013-05-14 01:47:00,67.5,56.5,30.22,ESE,113,4.0,7.0,68,0.00,,,0.00,meteohub,2013-05-14 06:47:00,
2013-05-14 01:53:00,67.5,56.5,30.22,East,90,4.0,7.0,68,0.00,,,0.00,meteohub,2013-05-14 06:53:00,
2013-05-14 01:58:00,67.5,57.0,30.22,ESE,113,4.0,8.0,69,0.00,,,0.00,meteohub,2013-05-14 06:58:00,
2013-05-14 02:03:00,67.3,56.8,30.22,East,90,5.0,8.0,69,0.00,,,0.00,meteohub,2013-05-14 07:03:00,
2013-05-14 02:08:00,67.3,56.8,30.22,NE,45,5.0,8.0,69,0.00,,,0.00,meteohub,2013-05-14 07:08:00,
2013-05-14 02:13:00,67.3,56.8,30.22,East,90,8.0,8.0,69,0.00,,,0.00,meteohub,2013-05-14 07:13:00,
2013-05-14 02:18:00,67.5,57.0,30.22,East,90,4.0,8.0,69,0.00,,,0.00,meteohub,2013-05-14 07:18:00,
2013-05-14 02:23:00,67.5,57.0,30.22,East,90,6.0,8.0,69,0.00,,,0.00,meteohub,2013-05-14 07:23:00,
2013-05-14 02:28:00,67.5,57.0,30.21,East,90,5.0,8.0,69,0.00,,,0.00,meteohub,2013-05-14 07:28:00,
2013-05-14 02:34:00,67.3,56.8,30.21,ENE,68,5.0,8.0,69,0.00,,,0.00,meteohub,2013-05-14 07:34:00,
2013-05-14 02:39:00,67.1,56.7,30.21,NE,45,4.0,8.0,69,0.00,,,0.00,meteohub,2013-05-14 07:39:00,
2013-05-14 02:44:00,66.9,56.5,30.20,East,90,4.0,7.0,69,0.00,,,0.00,meteohub,2013-05-14 07:44:00,
2013-05-14 02:49:00,66.7,56.3,30.20,East,90,4.0,7.0,69,0.00,,,0.00,meteohub,2013-05-14 07:49:00,
2013-05-14 02:54:00,66.6,56.1,30.20,NE,45,4.0,8.0,69,0.00,,,0.00,meteohub,2013-05-14 07:54:00,
2013-05-14 02:59:00,66.6,56.1,30.21,ENE,68,5.0,8.0,69,0.00,,,0.00,meteohub,2013-05-14 07:59:00,
2013-05-14 03:04:00,66.6,56.1,30.20,East,90,3.0,8.0,69,0.00,,,0.00,meteohub,2013-05-14 08:04:00,
2013-05-14 03:09:00,66.6,55.6,30.20,East,90,7.0,8.0,68,0.00,,,0.00,meteohub,2013-05-14 08:09:00,
2013-05-14 03:14:00,66.7,55.4,30.20,East,90,4.0,8.0,67,0.00,,,0.00,meteohub,2013-05-14 08:14:00,
2013-05-14 03:19:00,66.6,55.2,30.20,ENE,68,4.0,7.0,67,0.00,,,0.00,meteohub,2013-05-14 08:19:00,
2013-05-14 03:24:00,66.6,54.9,30.20,East,90,4.0,7.0,66,0.00,,,0.00,meteohub,2013-05-14 08:24:00,
2013-05-14 03:29:00,66.6,54.9,30.20,NE,45,2.0,7.0,66,0.00,,,0.00,meteohub,2013-05-14 08:29:00,
2013-05-14 03:34:00,66.4,54.7,30.20,NE,45,3.0,5.0,66,0.00,,,0.00,meteohub,2013-05-14 08:34:00,
2013-05-14 03:39:00,66.2,54.9,30.20,NE,45,4.0,5.0,67,0.00,,,0.00,meteohub,2013-05-14 08:39:00,
2013-05-14 03:45:00,66.2,54.9,30.19,North,0,3.0,5.0,67,0.00,,,0.00,meteohub,2013-05-14 08:45:00,
2013-05-14 03:50:00,65.8,55.4,30.20,NE,45,2.0,5.0,69,0.00,,,0.00,meteohub,2013-05-14 08:50:00,
2013-05-14 03:55:00,65.5,55.4,30.20,NE,45,2.0,5.0,70,0.00,,,0.00,meteohub,2013-05-14 08:55:00,
2013-05-14 04:00:00,65.1,55.0,30.20,North,0,2.0,4.0,70,0.00,,,0.00,meteohub,2013-05-14 09:00:00,
2013-05-14 04:05:00,64.8,55.2,30.20,NE,45,2.0,4.0,71,0.00,,,0.00,meteohub,2013-05-14 09:05:00,
2013-05-14 04:10:00,64.6,56.1,30.20,East,90,4.0,4.0,74,0.00,,,0.00,meteohub,2013-05-14 09:10:00,
2013-05-14 04:15:00,65.1,56.3,30.20,East,90,8.0,8.0,73,0.00,,,0.00,meteohub,2013-05-14 09:15:00,
2013-05-14 04:20:00,65.5,56.3,30.20,NE,45,2.0,8.0,72,0.00,,,0.00,meteohub,2013-05-14 09:20:00,
2013-05-14 04:25:00,65.1,55.9,30.20,NE,45,2.0,8.0,72,0.00,,,0.00,meteohub,2013-05-14 09:25:00,
2013-05-14 04:31:00,64.6,56.1,30.20,North,0,3.0,8.0,74,0.00,,,0.00,meteohub,2013-05-14 09:31:00,
2013-05-14 04:36:00,64.8,55.9,30.19,NE,45,3.0,5.0,73,0.00,,,0.00,meteohub,2013-05-14 09:36:00,
2013-05-14 04:41:00,64.9,56.1,30.19,NE,45,6.0,6.0,73,0.00,,,0.00,meteohub,2013-05-14 09:41:00,
2013-05-14 04:46:00,64.6,56.1,30.19,East,90,3.0,6.0,74,0.00,,,0.00,meteohub,2013-05-14 09:46:00,
2013-05-14 04:51:00,64.2,55.8,30.19,NE,45,2.0,6.0,74,0.00,,,0.00,meteohub,2013-05-14 09:51:00,
2013-05-14 04:56:00,63.7,55.6,30.19,East,90,2.0,6.0,75,0.00,,,0.00,meteohub,2013-05-14 09:56:00,
2013-05-14 05:01:00,63.5,55.8,30.19,East,90,2.0,3.0,76,0.00,,,0.00,meteohub,2013-05-14 10:01:00,
2013-05-14 05:07:00,63.5,55.8,30.20,East,90,2.0,2.0,76,0.00,,,0.00,meteohub,2013-05-14 10:07:00,
2013-05-14 05:12:00,62.2,54.9,30.19,SW,225,2.0,2.0,77,0.00,,,0.00,meteohub,2013-05-14 10:12:00,
2013-05-14 05:17:00,61.7,54.9,30.19,NW,315,0.0,2.0,78,0.00,,,0.00,meteohub,2013-05-14 10:17:00,
2013-05-14 05:22:00,61.2,54.9,30.20,North,0,1.0,2.0,80,0.00,,,0.00,meteohub,2013-05-14 10:22:00,
2013-05-14 05:27:00,60.6,55.4,30.20,NE,45,1.0,2.0,83,0.00,,,0.00,meteohub,2013-05-14 10:27:00,
2013-05-14 05:32:00,60.1,54.9,30.20,NE,45,0.0,2.0,83,0.00,,,0.00,meteohub,2013-05-14 10:32:00,
2013-05-14 05:37:00,59.5,54.7,30.20,NE,45,1.0,2.0,84,0.00,,,0.00,meteohub,2013-05-14 10:37:00,
2013-05-14 05:42:00,59.2,54.3,30.20,NE,45,0.0,2.0,84,0.00,,,0.00,meteohub,2013-05-14 10:42:00,
2013-05-14 05:47:00,58.6,54.1,30.20,NE,45,0.0,1.0,85,0.00,,,0.00,meteohub,2013-05-14 10:47:00,
2013-05-14 05:52:00,58.3,53.8,30.20,NE,45,1.0,1.0,85,0.00,,,0.00,meteohub,2013-05-14 10:52:00,
2013-05-14 05:57:00,58.1,54.0,30.20,NE,45,0.0,1.0,86,0.00,,,0.00,meteohub,2013-05-14 10:57:00,
2013-05-14 06:02:00,57.9,54.3,30.20,NE,45,1.0,2.0,88,0.00,,,0.00,meteohub,2013-05-14 11:02:00,
2013-05-14 06:07:00,57.7,54.5,30.19,NE,45,1.0,2.0,89,0.00,,,0.00,meteohub,2013-05-14 11:07:00,
2013-05-14 06:14:00,57.7,54.9,30.20,NE,45,1.0,2.0,90,0.00,,,0.00,meteohub,2013-05-14 11:14:00,
2013-05-14 06:19:00,57.7,55.2,30.20,NE,45,0.0,2.0,91,0.00,,,0.00,meteohub,2013-05-14 11:19:00,
2013-05-14 06:25:00,57.7,55.2,30.19,NE,45,0.0,2.0,91,0.00,,,0.00,meteohub,2013-05-14 11:25:00,
2013-05-14 06:31:00,57.9,55.2,30.19,NE,45,0.0,0.0,91,0.00,,,0.00,meteohub,2013-05-14 11:31:00,
2013-05-14 06:36:00,57.9,55.2,30.19,NE,45,0.0,0.0,91,0.00,,,0.00,meteohub,2013-05-14 11:36:00,
2013-05-14 06:42:00,57.7,54.9,30.19,NE,45,0.0,0.0,90,0.00,,,0.00,meteohub,2013-05-14 11:42:00,
2013-05-14 06:52:00,57.6,55.0,30.20,NE,45,0.0,0.0,91,0.00,,,0.00,meteohub,2013-05-14 11:52:00,
2013-05-14 06:57:00,57.4,54.9,30.20,NE,45,0.0,0.0,91,0.00,,,0.00,meteohub,2013-05-14 11:57:00,
2013-05-14 07:04:00,57.2,54.7,30.20,NE,45,0.0,0.0,91,0.00,,,0.00,meteohub,2013-05-14 12:04:00,
2013-05-14 07:09:00,57.2,54.7,30.20,NE,45,0.0,0.0,91,0.00,,,0.00,meteohub,2013-05-14 12:09:00,
2013-05-14 07:15:00,57.4,54.9,30.21,NW,315,0.0,0.0,91,0.00,,,0.00,meteohub,2013-05-14 12:15:00,
2013-05-14 07:21:00,57.6,55.0,30.21,NW,315,0.0,0.0,91,0.00,,,0.00,meteohub,2013-05-14 12:21:00,
2013-05-14 07:27:00,57.9,55.6,30.21,South,180,0.0,0.0,92,0.00,,,0.00,meteohub,2013-05-14 12:27:00,
2013-05-14 07:32:00,58.1,55.8,30.21,North,0,0.0,0.0,92,0.00,,,0.00,meteohub,2013-05-14 12:32:00,
2013-05-14 07:37:00,58.5,56.1,30.21,West,270,2.0,0.0,92,0.00,,,0.00,meteohub,2013-05-14 12:37:00,
2013-05-14 07:42:00,58.8,56.5,30.21,West,270,0.0,2.0,92,0.00,,,0.00,meteohub,2013-05-14 12:42:00,
2013-05-14 07:47:00,59.2,56.5,30.21,West,270,0.0,2.0,91,0.00,,,0.00,meteohub,2013-05-14 12:47:00,
2013-05-14 07:52:00,59.9,57.2,30.22,West,270,0.0,2.0,91,0.00,,,0.00,meteohub,2013-05-14 12:52:00,
2013-05-14 07:57:00,60.4,57.7,30.22,West,270,0.0,1.0,91,0.00,,,0.00,meteohub,2013-05-14 12:57:00,
2013-05-14 08:02:00,61.2,58.3,30.22,SE,135,0.0,0.0,90,0.00,,,0.00,meteohub,2013-05-14 13:02:00,
2013-05-14 08:07:00,62.1,58.8,30.22,East,90,0.0,0.0,89,0.00,,,0.00,meteohub,2013-05-14 13:07:00,
2013-05-14 08:12:00,63.0,58.6,30.22,NNW,338,2.0,2.0,86,0.00,,,0.00,meteohub,2013-05-14 13:12:00,
2013-05-14 08:17:00,64.0,59.7,30.22,NE,45,3.0,3.0,86,0.00,,,0.00,meteohub,2013-05-14 13:17:00,
2013-05-14 08:22:00,65.3,61.3,30.22,SE,135,2.0,4.0,87,0.00,,,0.00,meteohub,2013-05-14 13:22:00,
2013-05-14 08:27:00,66.4,61.3,30.22,East,90,5.0,5.0,84,0.00,,,0.00,meteohub,2013-05-14 13:27:00,
2013-05-14 08:32:00,66.9,61.9,30.22,SE,135,5.0,8.0,84,0.00,,,0.00,meteohub,2013-05-14 13:32:00,
2013-05-14 08:38:00,67.1,61.3,30.22,NE,45,9.0,9.0,82,0.00,,,0.00,meteohub,2013-05-14 13:38:00,
2013-05-14 08:43:00,67.5,61.7,30.22,NE,45,4.0,9.0,82,0.00,,,0.00,meteohub,2013-05-14 13:43:00,
2013-05-14 08:48:00,68.0,61.5,30.22,East,90,7.0,9.0,80,0.00,,,0.00,meteohub,2013-05-14 13:48:00,
2013-05-14 08:53:00,68.5,61.7,30.22,SSE,158,8.0,9.0,79,0.00,,,0.00,meteohub,2013-05-14 13:53:00,
2013-05-14 08:58:00,69.1,61.5,30.22,South,180,6.0,9.0,77,0.00,,,0.00,meteohub,2013-05-14 13:58:00,
2013-05-14 09:03:00,69.6,61.3,30.23,NE,45,10.0,10.0,75,0.00,,,0.00,meteohub,2013-05-14 14:03:00,
2013-05-14 09:08:00,69.1,61.2,30.22,NE,45,5.0,10.0,76,0.00,,,0.00,meteohub,2013-05-14 14:08:00,
2013-05-14 09:13:00,69.4,61.2,30.23,SSE,158,4.0,10.0,75,0.00,,,0.00,meteohub,2013-05-14 14:13:00,
2013-05-14 09:18:00,70.2,61.2,30.23,NE,45,8.0,10.0,73,0.00,,,0.00,meteohub,2013-05-14 14:18:00,
2013-05-14 09:23:00,70.5,61.5,30.23,NE,45,4.0,8.0,73,0.00,,,0.00,meteohub,2013-05-14 14:23:00,
2013-05-14 09:29:00,71.4,61.9,30.23,East,90,4.0,8.0,72,0.00,,,0.00,meteohub,2013-05-14 14:29:00,
2013-05-14 09:34:00,72.0,60.8,30.23,NE,45,5.0,8.0,68,0.00,,,0.00,meteohub,2013-05-14 14:34:00,
2013-05-14 09:39:00,72.3,61.5,30.23,South,180,4.0,8.0,69,0.00,,,0.00,meteohub,2013-05-14 14:39:00,
2013-05-14 09:44:00,73.2,60.8,30.23,NE,45,5.0,8.0,65,0.00,,,0.00,meteohub,2013-05-14 14:44:00,
2013-05-14 09:49:00,72.7,59.7,30.23,NE,45,8.0,8.0,64,0.00,,,0.00,meteohub,2013-05-14 14:49:00,
2013-05-14 09:54:00,72.9,59.5,30.23,SE,135,8.0,10.0,63,0.00,,,0.00,meteohub,2013-05-14 14:54:00,
2013-05-14 09:59:00,73.0,60.1,30.23,East,90,4.0,10.0,64,0.00,,,0.00,meteohub,2013-05-14 14:59:00,
2013-05-14 10:04:00,73.8,61.7,30.23,ESE,113,7.0,10.0,66,0.00,,,0.00,meteohub,2013-05-14 15:04:00,
2013-05-14 10:09:00,74.8,61.9,30.23,NE,45,5.0,9.0,64,0.00,,,0.00,meteohub,2013-05-14 15:09:00,
2013-05-14 10:14:00,75.2,60.4,30.23,East,90,13.0,13.0,60,0.00,,,0.00,meteohub,2013-05-14 15:14:00,
2013-05-14 10:19:00,75.6,61.2,30.23,SE,135,13.0,13.0,61,0.00,,,0.00,meteohub,2013-05-14 15:19:00,
2013-05-14 10:24:00,75.9,60.6,30.23,East,90,10.0,14.0,59,0.00,,,0.00,meteohub,2013-05-14 15:24:00,
2013-05-14 10:30:00,75.6,59.2,30.23,East,90,11.0,14.0,57,0.00,,,0.00,meteohub,2013-05-14 15:30:00,
2013-05-14 10:35:00,74.5,60.1,30.23,NE,45,8.0,14.0,61,0.00,,,0.00,meteohub,2013-05-14 15:35:00,
2013-05-14 10:40:00,75.0,60.6,30.23,East,90,11.0,15.0,61,0.00,,,0.00,meteohub,2013-05-14 15:40:00,
2013-05-14 10:45:00,74.5,59.7,30.23,East,90,8.0,15.0,60,0.00,,,0.00,meteohub,2013-05-14 15:45:00,
2013-05-14 10:50:00,74.3,59.9,30.23,East,90,8.0,17.0,61,0.00,,,0.00,meteohub,2013-05-14 15:50:00,
2013-05-14 10:55:00,74.1,59.7,30.23,NW,315,10.0,17.0,61,0.00,,,0.00,meteohub,2013-05-14 15:55:00,
2013-05-14 11:00:00,74.5,60.6,30.23,NE,45,8.0,17.0,62,0.00,,,0.00,meteohub,2013-05-14 16:00:00,
2013-05-14 11:05:00,75.2,60.4,30.23,East,90,8.0,11.0,60,0.00,,,0.00,meteohub,2013-05-14 16:05:00,
2013-05-14 11:11:00,75.6,59.7,30.23,East,90,8.0,11.0,58,0.00,,,0.00,meteohub,2013-05-14 16:11:00,
2013-05-14 11:16:00,77.0,60.1,30.22,East,90,9.0,11.0,56,0.00,,,0.00,meteohub,2013-05-14 16:16:00,
2013-05-14 11:21:00,78.1,60.1,30.22,SE,135,7.0,9.0,54,0.00,,,0.00,meteohub,2013-05-14 16:21:00,
2013-05-14 11:26:00,78.4,58.3,30.22,East,90,10.0,11.0,50,0.00,,,0.00,meteohub,2013-05-14 16:26:00,
2013-05-14 11:31:00,78.4,58.8,30.22,ESE,113,11.0,12.0,51,0.00,,,0.00,meteohub,2013-05-14 16:31:00,
2013-05-14 11:36:00,79.2,57.2,30.22,North,0,8.0,12.0,47,0.00,,,0.00,meteohub,2013-05-14 16:36:00,
2013-05-14 11:41:00,78.8,56.8,30.22,South,180,6.0,12.0,47,0.00,,,0.00,meteohub,2013-05-14 16:41:00,
2013-05-14 11:47:00,80.1,57.4,30.21,East,90,10.0,12.0,46,0.00,,,0.00,meteohub,2013-05-14 16:47:00,
2013-05-14 11:52:00,80.6,58.5,30.22,NE,45,10.0,12.0,47,0.00,,,0.00,meteohub,2013-05-14 16:52:00,
2013-05-14 11:57:00,80.6,57.4,30.21,ESE,113,7.0,11.0,45,0.00,,,0.00,meteohub,2013-05-14 16:57:00,
2013-05-14 12:02:00,81.0,57.0,30.21,NNE,23,8.0,11.0,44,0.00,,,0.00,meteohub,2013-05-14 17:02:00,
2013-05-14 12:07:00,81.0,57.0,30.20,SE,135,8.0,17.0,44,0.00,,,0.00,meteohub,2013-05-14 17:07:00,
2013-05-14 12:12:00,81.1,57.2,30.20,NE,45,6.0,17.0,44,0.00,,,0.00,meteohub,2013-05-14 17:12:00,
2013-05-14 12:17:00,81.7,57.6,30.20,East,90,6.0,17.0,44,0.00,,,0.00,meteohub,2013-05-14 17:17:00,
2013-05-14 12:22:00,81.5,57.6,30.20,NE,45,6.0,11.0,44,0.00,,,0.00,meteohub,2013-05-14 17:22:00,
2013-05-14 12:27:00,82.2,58.8,30.20,East,90,5.0,13.0,45,0.00,,,0.00,meteohub,2013-05-14 17:27:00,
2013-05-14 12:32:00,82.4,59.5,30.20,NE,45,7.0,13.0,46,0.00,,,0.00,meteohub,2013-05-14 17:32:00,
2013-05-14 12:37:00,82.4,59.5,30.19,NE,45,8.0,13.0,46,0.00,,,0.00,meteohub,2013-05-14 17:37:00,
2013-05-14 12:42:00,82.9,60.1,30.19,West,270,10.0,12.0,46,0.00,,,0.00,meteohub,2013-05-14 17:42:00,
2013-05-14 12:47:00,82.6,59.0,30.19,East,90,7.0,12.0,45,0.00,,,0.00,meteohub,2013-05-14 17:47:00,
2013-05-14 12:52:00,83.3,60.4,30.19,NE,45,5.0,11.0,46,0.00,,,0.00,meteohub,2013-05-14 17:52:00,
2013-05-14 12:57:00,83.7,60.1,30.19,North,0,4.0,11.0,45,0.00,,,0.00,meteohub,2013-05-14 17:57:00,
2013-05-14 13:02:00,83.8,60.3,30.18,East,90,4.0,11.0,45,0.00,,,0.00,meteohub,2013-05-14 18:02:00,
2013-05-14 13:07:00,85.3,59.0,30.18,ENE,68,9.0,13.0,41,0.00,,,0.00,meteohub,2013-05-14 18:07:00,
2013-05-14 13:13:00,85.6,57.9,30.18,East,90,11.0,15.0,39,0.00,,,0.00,meteohub,2013-05-14 18:13:00,
2013-05-14 13:18:00,85.6,57.9,30.17,NW,315,7.0,15.0,39,0.00,,,0.00,meteohub,2013-05-14 18:18:00,
2013-05-14 13:23:00,86.2,58.3,30.18,East,90,4.0,13.0,39,0.00,,,0.00,meteohub,2013-05-14 18:23:00,
2013-05-14 13:28:00,86.0,56.7,30.17,NE,45,6.0,11.0,37,0.00,,,0.00,meteohub,2013-05-14 18:28:00,
2013-05-14 13:33:00,86.0,58.8,30.17,NNE,23,10.0,10.0,40,0.00,,,0.00,meteohub,2013-05-14 18:33:00,
2013-05-14 13:38:00,85.5,55.4,30.17,NE,45,9.0,10.0,36,0.00,,,0.00,meteohub,2013-05-14 18:38:00,
2013-05-14 13:43:00,85.8,56.5,30.17,East,90,15.0,15.0,37,0.00,,,0.00,meteohub,2013-05-14 18:43:00,
2013-05-14 13:48:00,84.4,55.9,30.17,NE,45,11.0,15.0,38,0.00,,,0.00,meteohub,2013-05-14 18:48:00,
2013-05-14 13:53:00,84.6,55.4,30.17,East,90,10.0,15.0,37,0.00,,,0.00,meteohub,2013-05-14 18:53:00,
2013-05-14 13:58:00,85.1,55.9,30.16,East,90,15.0,15.0,37,0.00,,,0.00,meteohub,2013-05-14 18:58:00,
2013-05-14 14:03:00,85.8,57.2,30.16,East,90,12.0,15.0,38,0.00,,,0.00,meteohub,2013-05-14 19:03:00,
2013-05-14 14:08:00,86.2,55.4,30.16,East,90,12.0,15.0,35,0.00,,,0.00,meteohub,2013-05-14 19:08:00,
2013-05-14 14:13:00,86.9,55.9,30.16,North,0,7.0,15.0,35,0.00,,,0.00,meteohub,2013-05-14 19:13:00,
2013-05-14 14:19:00,87.3,56.3,30.15,East,90,11.0,15.0,35,0.00,,,0.00,meteohub,2013-05-14 19:19:00,
2013-05-14 14:24:00,87.1,54.5,30.15,NE,45,8.0,15.0,33,0.00,,,0.00,meteohub,2013-05-14 19:24:00,
2013-05-14 14:29:00,86.7,54.1,30.15,NE,45,7.0,15.0,33,0.00,,,0.00,meteohub,2013-05-14 19:29:00,
2013-05-14 14:34:00,87.3,54.7,30.15,North,0,6.0,15.0,33,0.00,,,0.00,meteohub,2013-05-14 19:34:00,
2013-05-14 14:39:00,87.6,52.3,30.15,NE,45,13.0,15.0,30,0.00,,,0.00,meteohub,2013-05-14 19:39:00,
2013-05-14 14:45:00,87.6,55.0,30.14,NE,45,9.0,17.0,33,0.00,,,0.00,meteohub,2013-05-14 19:45:00,
2013-05-14 14:50:00,87.1,54.5,30.14,East,90,7.0,17.0,33,0.00,,,0.00,meteohub,2013-05-14 19:50:00,
2013-05-14 14:55:00,86.7,54.1,30.14,NE,45,5.0,15.0,33,0.00,,,0.00,meteohub,2013-05-14 19:55:00,
2013-05-14 15:00:00,87.6,55.0,30.14,NE,45,9.0,16.0,33,0.00,,,0.00,meteohub,2013-05-14 20:00:00,
2013-05-14 15:05:00,88.2,55.4,30.13,ENE,68,7.0,16.0,33,0.00,,,0.00,meteohub,2013-05-14 20:05:00,
2013-05-14 15:10:00,88.5,57.4,30.13,East,90,10.0,15.0,35,0.00,,,0.00,meteohub,2013-05-14 20:10:00,
2013-05-14 15:15:00,88.2,55.4,30.13,NE,45,9.0,15.0,33,0.00,,,0.00,meteohub,2013-05-14 20:15:00,
2013-05-14 15:20:00,88.0,56.8,30.12,NE,45,6.0,15.0,35,0.00,,,0.00,meteohub,2013-05-14 20:20:00,
2013-05-14 15:25:00,87.6,58.1,30.12,NE,45,12.0,14.0,37,0.00,,,0.00,meteohub,2013-05-14 20:25:00,
2013-05-14 15:30:00,88.3,57.9,30.12,NE,45,9.0,14.0,36,0.00,,,0.00,meteohub,2013-05-14 20:30:00,
2013-05-14 15:35:00,88.7,59.9,30.12,NE,45,8.0,14.0,38,0.00,,,0.00,meteohub,2013-05-14 20:35:00,
2013-05-14 15:40:00,89.6,58.3,30.12,East,90,8.0,14.0,35,0.00,,,0.00,meteohub,2013-05-14 20:40:00,
2013-05-14 15:45:00,88.5,58.1,30.12,East,90,5.0,14.0,36,0.00,,,0.00,meteohub,2013-05-14 20:45:00,
2013-05-14 15:51:00,88.7,62.1,30.12,NE,45,8.0,14.0,41,0.00,,,0.00,meteohub,2013-05-14 20:51:00,
2013-05-14 15:56:00,88.7,59.9,30.11,North,0,8.0,14.0,38,0.00,,,0.00,meteohub,2013-05-14 20:56:00,
2013-05-14 16:01:00,88.7,59.9,30.11,North,0,9.0,13.0,38,0.00,,,0.00,meteohub,2013-05-14 21:01:00,
2013-05-14 16:06:00,88.3,61.7,30.11,East,90,5.0,13.0,41,0.00,,,0.00,meteohub,2013-05-14 21:06:00,
2013-05-14 16:11:00,89.1,61.5,30.11,ESE,113,8.0,14.0,40,0.00,,,0.00,meteohub,2013-05-14 21:11:00,
2013-05-14 16:16:00,89.1,61.5,30.11,East,90,12.0,14.0,40,0.00,,,0.00,meteohub,2013-05-14 21:16:00,
2013-05-14 16:21:00,88.2,61.5,30.10,East,90,9.0,17.0,41,0.00,,,0.00,meteohub,2013-05-14 21:21:00,
2013-05-14 16:26:00,88.3,62.4,30.10,East,90,10.0,17.0,42,0.00,,,0.00,meteohub,2013-05-14 21:26:00,
2013-05-14 16:31:00,88.0,62.1,30.10,ENE,68,8.0,17.0,42,0.00,,,0.00,meteohub,2013-05-14 21:31:00,
2013-05-14 16:36:00,88.2,62.2,30.10,NE,45,11.0,16.0,42,0.00,,,0.00,meteohub,2013-05-14 21:36:00,
2013-05-14 16:41:00,88.9,62.8,30.09,SW,225,9.0,16.0,42,0.00,,,0.00,meteohub,2013-05-14 21:41:00,
2013-05-14 16:46:00,88.7,62.1,30.09,NE,45,16.0,16.0,41,0.00,,,0.00,meteohub,2013-05-14 21:46:00,
2013-05-14 16:51:00,88.2,62.2,30.09,East,90,5.0,16.0,42,0.00,,,0.00,meteohub,2013-05-14 21:51:00,
2013-05-14 16:56:00,89.4,62.6,30.09,NE,45,10.0,16.0,41,0.00,,,0.00,meteohub,2013-05-14 21:56:00,
2013-05-14 17:01:00,87.6,63.0,30.08,East,90,15.0,16.0,44,0.00,,,0.00,meteohub,2013-05-14 22:01:00,
2013-05-14 17:06:00,87.4,63.5,30.08,NE,45,10.0,15.0,45,0.00,,,0.00,meteohub,2013-05-14 22:06:00,
2013-05-14 17:11:00,88.2,62.8,30.08,East,90,10.0,15.0,43,0.00,,,0.00,meteohub,2013-05-14 22:11:00,
2013-05-14 17:16:00,88.2,62.2,30.07,East,90,14.0,15.0,42,0.00,,,0.00,meteohub,2013-05-14 22:16:00,
2013-05-14 17:22:00,87.6,62.4,30.08,SE,135,8.0,14.0,43,0.00,,,0.00,meteohub,2013-05-14 22:22:00,
2013-05-14 17:27:00,88.9,62.8,30.07,East,90,11.0,14.0,42,0.00,,,0.00,meteohub,2013-05-14 22:27:00,
2013-05-14 17:32:00,88.2,62.2,30.07,NE,45,17.0,17.0,42,0.00,,,0.00,meteohub,2013-05-14 22:32:00,
2013-05-14 17:37:00,88.0,62.6,30.07,North,0,6.0,17.0,43,0.00,,,0.00,meteohub,2013-05-14 22:37:00,
2013-05-14 17:42:00,88.0,62.1,30.07,SE,135,10.0,17.0,42,0.00,,,0.00,meteohub,2013-05-14 22:42:00,
2013-05-14 17:47:00,86.5,62.1,30.07,East,90,11.0,17.0,44,0.00,,,0.00,meteohub,2013-05-14 22:47:00,
2013-05-14 17:52:00,86.4,61.9,30.07,East,90,13.0,16.0,44,0.00,,,0.00,meteohub,2013-05-14 22:52:00,
2013-05-14 17:57:00,84.9,61.9,30.07,East,90,11.0,16.0,46,0.00,,,0.00,meteohub,2013-05-14 22:57:00,
2013-05-14 18:02:00,84.6,61.5,30.06,East,90,10.0,15.0,46,0.00,,,0.00,meteohub,2013-05-14 23:02:00,
2013-05-14 18:07:00,84.2,61.2,30.06,ENE,68,11.0,15.0,46,0.00,,,0.00,meteohub,2013-05-14 23:07:00,
2013-05-14 18:12:00,85.1,62.6,30.06,ENE,68,6.0,14.0,47,0.00,,,0.00,meteohub,2013-05-14 23:12:00,
2013-05-14 18:17:00,86.4,62.4,30.06,NE,45,8.0,14.0,45,0.00,,,0.00,meteohub,2013-05-14 23:17:00,
2013-05-14 18:22:00,86.7,62.8,30.06,NE,45,10.0,21.0,45,0.00,,,0.00,meteohub,2013-05-14 23:22:00,
2013-05-14 18:27:00,85.6,62.4,30.06,South,180,7.0,21.0,46,0.00,,,0.00,meteohub,2013-05-14 23:27:00,
2013-05-14 18:32:00,86.0,62.8,30.05,NE,45,6.0,21.0,46,0.00,,,0.00,meteohub,2013-05-14 23:32:00,
2013-05-14 18:37:00,86.2,62.4,30.05,East,90,14.0,14.0,45,0.00,,,0.00,meteohub,2013-05-14 23:37:00,
2013-05-14 18:42:00,86.2,63.0,30.05,East,90,4.0,14.0,46,0.00,,,0.00,meteohub,2013-05-14 23:42:00,
2013-05-14 18:47:00,86.4,63.1,30.04,SSE,158,8.0,14.0,46,0.00,,,0.00,meteohub,2013-05-14 23:47:00,
2013-05-14 18:52:00,86.4,62.4,30.04,ENE,68,5.0,14.0,45,0.00,,,0.00,meteohub,2013-05-14 23:52:00,
2013-05-14 18:57:00,86.4,63.1,30.04,NE,45,7.0,11.0,46,0.00,,,0.00,meteohub,2013-05-14 23:57:00,
2013-05-14 19:02:00,85.8,63.3,30.04,East,90,5.0,11.0,47,0.00,,,0.00,meteohub,2013-05-15 00:02:00,
2013-05-14 19:07:00,85.1,62.6,30.04,NE,45,6.0,11.0,47,0.00,,,0.00,meteohub,2013-05-15 00:07:00,
2013-05-14 19:12:00,84.2,62.4,30.03,East,90,8.0,14.0,48,0.00,,,0.00,meteohub,2013-05-15 00:12:00,
2013-05-14 19:17:00,84.2,62.4,30.03,East,90,10.0,14.0,48,0.00,,,0.00,meteohub,2013-05-15 00:17:00,
2013-05-14 19:22:00,83.8,62.6,30.03,East,90,7.0,14.0,49,0.00,,,0.00,meteohub,2013-05-15 00:22:00,
2013-05-14 19:27:00,83.5,63.0,30.03,East,90,8.0,11.0,50,0.00,,,0.00,meteohub,2013-05-15 00:27:00,
2013-05-14 19:32:00,83.1,62.6,30.02,West,270,6.0,11.0,50,0.00,,,0.00,meteohub,2013-05-15 00:32:00,
2013-05-14 19:37:00,82.9,62.4,30.03,NW,315,6.0,9.0,50,0.00,,,0.00,meteohub,2013-05-15 00:37:00,
2013-05-14 19:42:00,82.4,61.9,30.03,East,90,11.0,11.0,50,0.00,,,0.00,meteohub,2013-05-15 00:42:00,
2013-05-14 19:47:00,81.7,61.9,30.03,ENE,68,7.0,14.0,51,0.00,,,0.00,meteohub,2013-05-15 00:47:00,
2013-05-14 19:52:00,81.3,62.1,30.03,NE,45,8.0,14.0,52,0.00,,,0.00,meteohub,2013-05-15 00:52:00,
2013-05-14 19:57:00,80.8,61.5,30.03,North,0,4.0,11.0,52,0.00,,,0.00,meteohub,2013-05-15 00:57:00,
2013-05-14 20:02:00,80.6,61.9,30.03,NE,45,4.0,11.0,53,0.00,,,0.00,meteohub,2013-05-15 01:02:00,
2013-05-14 20:07:00,80.1,62.4,30.03,NE,45,5.0,10.0,55,0.00,,,0.00,meteohub,2013-05-15 01:07:00,
2013-05-14 20:12:00,79.9,62.2,30.03,NE,45,5.0,10.0,55,0.00,,,0.00,meteohub,2013-05-15 01:12:00,
2013-05-14 20:17:00,79.7,62.6,30.03,North,0,3.0,8.0,56,0.00,,,0.00,meteohub,2013-05-15 01:17:00,
2013-05-14 20:22:00,79.5,63.0,30.04,NE,45,5.0,8.0,57,0.00,,,0.00,meteohub,2013-05-15 01:22:00,
2013-05-14 20:27:00,79.3,62.8,30.04,East,90,5.0,10.0,57,0.00,,,0.00,meteohub,2013-05-15 01:27:00,
2013-05-14 20:32:00,79.3,63.3,30.04,East,90,11.0,11.0,58,0.00,,,0.00,meteohub,2013-05-15 01:32:00,
2013-05-14 20:37:00,79.2,63.1,30.04,East,90,5.0,11.0,58,0.00,,,0.00,meteohub,2013-05-15 01:37:00,
2013-05-14 20:42:00,79.0,63.5,30.04,North,0,5.0,11.0,59,0.00,,,0.00,meteohub,2013-05-15 01:42:00,
2013-05-14 20:47:00,78.8,63.7,30.04,NE,45,4.0,11.0,60,0.00,,,0.00,meteohub,2013-05-15 01:47:00,
2013-05-14 20:52:00,78.6,64.6,30.05,NE,45,4.0,7.0,62,0.00,,,0.00,meteohub,2013-05-15 01:52:00,
2013-05-14 20:57:00,78.4,64.8,30.05,NE,45,9.0,9.0,63,0.00,,,0.00,meteohub,2013-05-15 01:57:00,
2013-05-14 21:02:00,78.4,64.8,30.05,East,90,8.0,10.0,63,0.00,,,0.00,meteohub,2013-05-15 02:02:00,
2013-05-14 21:07:00,78.4,64.8,30.05,NE,45,5.0,10.0,63,0.00,,,0.00,meteohub,2013-05-15 02:07:00,
2013-05-14 21:12:00,78.3,65.1,30.05,NE,45,5.0,10.0,64,0.00,,,0.00,meteohub,2013-05-15 02:12:00,
2013-05-14 21:17:00,78.3,65.5,30.06,NE,45,9.0,10.0,65,0.00,,,0.00,meteohub,2013-05-15 02:17:00,
2013-05-14 21:22:00,78.3,65.5,30.06,East,90,8.0,9.0,65,0.00,,,0.00,meteohub,2013-05-15 02:22:00,
2013-05-14 21:27:00,78.3,66.0,30.07,NE,45,8.0,11.0,66,0.00,,,0.00,meteohub,2013-05-15 02:27:00,
2013-05-14 21:32:00,78.1,66.2,30.07,East,90,4.0,11.0,67,0.00,,,0.00,meteohub,2013-05-15 02:32:00,
2013-05-14 21:37:00,77.9,66.6,30.07,SE,135,7.0,11.0,68,0.00,,,0.00,meteohub,2013-05-15 02:37:00,
2013-05-14 21:42:00,78.1,66.7,30.07,ESE,113,7.0,10.0,68,0.00,,,0.00,meteohub,2013-05-15 02:42:00,
2013-05-14 21:47:00,77.9,66.6,30.07,ENE,68,8.0,10.0,68,0.00,,,0.00,meteohub,2013-05-15 02:47:00,
2013-05-14 21:52:00,77.7,66.7,30.07,NNE,23,8.0,12.0,69,0.00,,,0.00,meteohub,2013-05-15 02:52:00,
2013-05-14 21:57:00,77.5,66.6,30.07,East,90,9.0,12.0,69,0.00,,,0.00,meteohub,2013-05-15 02:57:00,
2013-05-14 22:02:00,77.5,66.6,30.07,NE,45,4.0,11.0,69,0.00,,,0.00,meteohub,2013-05-15 03:02:00,
2013-05-14 22:07:00,77.4,66.7,30.07,NE,45,11.0,11.0,70,0.00,,,0.00,meteohub,2013-05-15 03:07:00,
2013-05-14 22:12:00,77.2,66.6,30.08,NE,45,5.0,10.0,70,0.00,,,0.00,meteohub,2013-05-15 03:12:00,
2013-05-14 22:17:00,77.0,66.4,30.08,NE,45,11.0,11.0,70,0.00,,,0.00,meteohub,2013-05-15 03:17:00,
2013-05-14 22:23:00,77.0,66.4,30.09,NE,45,10.0,11.0,70,0.00,,,0.00,meteohub,2013-05-15 03:23:00,
2013-05-14 22:28:00,77.0,66.4,30.09,SW,225,4.0,11.0,70,0.00,,,0.00,meteohub,2013-05-15 03:28:00,
2013-05-14 22:33:00,77.0,66.4,30.09,NE,45,4.0,11.0,70,0.00,,,0.00,meteohub,2013-05-15 03:33:00,
2013-05-14 22:38:00,76.6,66.9,30.09,NE,45,7.0,11.0,72,0.00,,,0.00,meteohub,2013-05-15 03:38:00,
2013-05-14 22:43:00,76.6,67.3,30.09,East,90,15.0,15.0,73,0.00,,,0.00,meteohub,2013-05-15 03:43:00,
2013-05-14 22:48:00,76.3,66.9,30.09,SW,225,5.0,15.0,73,0.00,,,0.00,meteohub,2013-05-15 03:48:00,
2013-05-14 22:53:00,76.3,67.5,30.09,NE,45,11.0,15.0,74,0.00,,,0.00,meteohub,2013-05-15 03:53:00,
2013-05-14 22:58:00,76.1,67.3,30.10,NE,45,8.0,15.0,74,0.00,,,0.00,meteohub,2013-05-15 03:58:00,
2013-05-14 23:01:00,76.1,67.3,30.09,SE,135,5.0,12.0,74,0.00,,,0.00,meteohub,2013-05-15 04:01:00,
2013-05-14 23:04:00,76.1,67.3,30.09,SE,135,5.0,12.0,74,0.00,,,0.00,meteohub,2013-05-15 04:04:00,
2013-05-14 23:09:00,75.9,67.1,30.09,East,90,5.0,12.0,74,0.00,,,0.00,meteohub,2013-05-15 04:09:00,
2013-05-14 23:14:00,75.9,67.1,30.10,East,90,10.0,10.0,74,0.00,,,0.00,meteohub,2013-05-15 04:14:00,
2013-05-14 23:19:00,75.9,67.5,30.10,East,90,8.0,10.0,75,0.00,,,0.00,meteohub,2013-05-15 04:19:00,
2013-05-14 23:24:00,75.7,67.3,30.11,NE,45,8.0,10.0,75,0.00,,,0.00,meteohub,2013-05-15 04:24:00,
2013-05-14 23:29:00,75.7,67.3,30.11,East,90,5.0,12.0,75,0.00,,,0.00,meteohub,2013-05-15 04:29:00,
2013-05-14 23:34:00,75.7,66.9,30.11,East,90,9.0,12.0,74,0.00,,,0.00,meteohub,2013-05-15 04:34:00,
2013-05-14 23:39:00,75.6,66.7,30.10,East,90,10.0,12.0,74,0.00,,,0.00,meteohub,2013-05-15 04:39:00,
2013-05-14 23:44:00,75.4,66.6,30.10,NE,45,5.0,12.0,74,0.00,,,0.00,meteohub,2013-05-15 04:44:00,
2013-05-14 23:49:00,75.0,66.9,30.11,East,90,5.0,12.0,76,0.00,,,0.00,meteohub,2013-05-15 04:49:00,
2013-05-14 23:54:00,75.0,66.9,30.11,NE,45,6.0,12.0,76,0.00,,,0.00,meteohub,2013-05-15 04:54:00,
2013-05-14 23:59:00,74.8,66.7,30.11,NE,45,5.0,11.0,76,0.00,,,0.00,meteohub,2013-05-15 04:59:00,